| time (UTC) | temp F | wind direction | speed MPH | gust MPH | rain 1hr in | rain 24hr in | rain mn in | humidity % | barometer mb |
| 20260509104538 | 54 | 53 | 3.0 | 11.0 | 0.00 | 0.00 | 0.00 | 27 | 1013.1 |
| 20260509103037 | 53 | 68 | 3.0 | 6.0 | 0.00 | 0.00 | 0.00 | 28 | 1013.0 |
| 20260509101537 | 53 | 59 | 3.0 | 5.0 | 0.00 | 0.00 | 0.00 | 28 | 1012.9 |
| 20260509100034 | 54 | 98 | 2.0 | 7.0 | 0.00 | 0.00 | 0.00 | 28 | 1012.9 |
| 20260509094544 | 54 | 72 | 3.0 | 6.0 | 0.00 | 0.00 | 0.00 | 28 | 1012.9 |
| 20260509093031 | 55 | 62 | 2.0 | 6.0 | 0.00 | 0.00 | 0.00 | 28 | 1012.9 |
| 20260509091502 | 55 | 83 | 3.0 | 9.0 | 0.00 | 0.00 | 0.00 | 28 | 1012.8 |
| 20260509090001 | 55 | 66 | 4.0 | 10.0 | 0.00 | 0.00 | 0.00 | 29 | 1012.7 |
| 20260509084604 | 55 | 51 | 5.0 | 9.0 | 0.00 | 0.00 | 0.00 | 31 | 1012.8 |
| 20260509083059 | 55 | 70 | 5.0 | 9.0 | 0.00 | 0.00 | 0.00 | 32 | 1012.9 |
| 20260509081557 | 54 | 74 | 3.0 | 8.0 | 0.00 | 0.00 | 0.00 | 34 | 1012.9 |
| 20260509080110 | 54 | 68 | 4.0 | 7.0 | 0.00 | 0.00 | 0.00 | 34 | 1013.0 |
| 20260509074553 | 54 | 66 | 3.0 | 5.0 | 0.00 | 0.00 | 0.00 | 36 | 1012.9 |
| 20260509073105 | 53 | 66 | 2.0 | 8.0 | 0.00 | 0.00 | 0.00 | 37 | 1012.8 |
| 20260509071551 | 49 | 69 | 1.0 | 3.0 | 0.00 | 0.00 | 0.00 | 42 | 1012.5 |
| 20260509070118 | 51 | 65 | 1.0 | 2.0 | 0.00 | 0.00 | 0.00 | 40 | 1012.3 |
| 20260509064543 | 50 | 65 | 0.0 | 2.0 | 0.00 | 0.00 | 0.00 | 41 | 1012.0 |
| 20260509063047 | 49 | 58 | 0.0 | 3.0 | 0.00 | 0.00 | 0.00 | 45 | 1011.8 |
| 20260509061538 | 50 | 60 | 0.0 | 3.0 | 0.00 | 0.00 | 0.00 | 43 | 1011.5 |
| 20260509060035 | 52 | 7 | 0.0 | 1.0 | 0.00 | 0.00 | 0.00 | 42 | 1011.3 |
| 20260509054531 | 55 | 69 | 0.0 | 1.0 | 0.00 | 0.00 | 0.00 | 38 | 1011.2 |
| 20260509053101 | 57 | 105 | 0.0 | 0.0 | 0.00 | 0.00 | 0.00 | 33 | 1011.1 |
| 20260509051604 | 56 | 105 | 0.0 | 1.0 | 0.00 | 0.00 | 0.00 | 33 | 1011.0 |
| 20260509044604 | 56 | 72 | 0.0 | 1.0 | 0.00 | 0.00 | 0.00 | 34 | 1010.9 |
| 20260509043102 | 55 | 80 | 0.0 | 1.0 | 0.00 | 0.00 | 0.00 | 34 | 1010.7 |
| 20260509041553 | 59 | 146 | 0.0 | 1.0 | 0.00 | 0.00 | 0.00 | 28 | 1010.6 |
| 20260509040021 | 59 | 129 | 0.0 | 0.0 | 0.00 | 0.00 | 0.00 | 28 | 1010.5 |
| 20260509034519 | 59 | 129 | 0.0 | 1.0 | 0.00 | 0.00 | 0.00 | 27 | 1010.4 |
| 20260509033020 | 60 | 133 | 0.0 | 2.0 | 0.00 | 0.00 | 0.00 | 25 | 1010.3 |
| 20260509031511 | 61 | 304 | 0.0 | 0.0 | 0.00 | 0.00 | 0.00 | 23 | 1010.1 |
| 20260509030017 | 63 | 304 | 0.0 | 0.0 | 0.00 | 0.00 | 0.00 | 22 | 1009.9 |
| 20260509024503 | 64 | 304 | 0.0 | 5.0 | 0.00 | 0.00 | 0.00 | 21 | 1009.7 |
| 20260509023057 | 66 | 304 | 3.0 | 6.0 | 0.00 | 0.00 | 0.00 | 20 | 1009.4 |
| 20260509021555 | 68 | 323 | 5.0 | 9.0 | 0.00 | 0.00 | 0.00 | 19 | 1009.2 |
| 20260509020050 | 72 | 295 | 5.0 | 11.0 | 0.00 | 0.00 | 0.00 | 17 | 1008.9 |
| 20260509014549 | 73 | 290 | 5.0 | 12.0 | 0.00 | 0.00 | 0.00 | 18 | 1008.8 |
| 20260509013017 | 73 | 302 | 6.0 | 13.0 | 0.00 | 0.00 | 0.00 | 18 | 1008.6 |
| 20260509011517 | 74 | 265 | 6.0 | 11.0 | 0.00 | 0.00 | 0.00 | 19 | 1008.7 |
| 20260509010016 | 74 | 300 | 9.0 | 15.0 | 0.00 | 0.00 | 0.00 | 19 | 1008.8 |
| 20260509004517 | 75 | 325 | 9.0 | 15.0 | 0.00 | 0.00 | 0.00 | 19 | 1008.7 |
| 20260509003012 | 74 | 325 | 8.0 | 16.0 | 0.00 | 0.00 | 0.00 | 19 | 1008.8 |
| 20260509001512 | 75 | 272 | 7.0 | 12.0 | 0.00 | 0.00 | 0.00 | 18 | 1008.9 |
| 20260509000045 | 74 | 297 | 5.0 | 12.0 | 0.00 | 0.00 | 0.00 | 18 | 1008.9 |
| 20260508234541 | 75 | 264 | 6.0 | 12.0 | 0.00 | 0.00 | 0.00 | 16 | 1008.9 |
| 20260508233039 | 76 | 346 | 6.0 | 13.0 | 0.00 | 0.00 | 0.00 | 16 | 1008.9 |
| 20260508231544 | 77 | 281 | 9.0 | 17.0 | 0.00 | 0.00 | 0.00 | 15 | 1009.0 |
| 20260508230036 | 76 | 281 | 6.0 | 12.0 | 0.00 | 0.00 | 0.00 | 16 | 1009.1 |
| 20260508224555 | 77 | 288 | 5.0 | 15.0 | 0.00 | 0.00 | 0.00 | 18 | 1009.3 |
| 20260508223027 | 76 | 276 | 3.0 | 10.0 | 0.00 | 0.00 | 0.00 | 18 | 1009.5 |
| 20260508221532 | 75 | 260 | 1.0 | 12.0 | 0.00 | 0.00 | 0.00 | 19 | 1009.5 |
| 20260508220031 | 76 | 297 | 8.0 | 14.0 | 0.00 | 0.00 | 0.00 | 19 | 1009.7 |
| 20260508214533 | 76 | 240 | 2.0 | 13.0 | 0.00 | 0.00 | 0.00 | 20 | 1009.9 |
| 20260508213029 | 76 | 257 | 7.0 | 14.0 | 0.00 | 0.00 | 0.00 | 20 | 1010.1 |
| 20260508211523 | 75 | 297 | 5.0 | 16.0 | 0.00 | 0.00 | 0.00 | 19 | 1010.4 |
| 20260508210017 | 75 | 288 | 5.0 | 15.0 | 0.00 | 0.00 | 0.00 | 19 | 1010.5 |
| 20260508204511 | 75 | 278 | 7.0 | 13.0 | 0.00 | 0.00 | 0.00 | 19 | 1010.6 |
| 20260508203008 | 74 | 278 | 3.0 | 15.0 | 0.00 | 0.00 | 0.00 | 19 | 1010.7 |
| 20260508201506 | 73 | 101 | 4.0 | 8.0 | 0.00 | 0.00 | 0.00 | 20 | 1010.9 |
| 20260508200108 | 73 | 298 | 5.0 | 9.0 | 0.00 | 0.00 | 0.00 | 20 | 1011.3 |
| 20260508194552 | 73 | 307 | 6.0 | 13.0 | 0.00 | 0.00 | 0.00 | 20 | 1011.4 |
| 20260508193058 | 73 | 68 | 4.0 | 9.0 | 0.00 | 0.00 | 0.00 | 20 | 1011.5 |
| 20260508191547 | 73 | 342 | 5.0 | 11.0 | 0.00 | 0.00 | 0.00 | 20 | 1011.6 |
| 20260508190040 | 72 | 277 | 5.0 | 11.0 | 0.00 | 0.00 | 0.00 | 20 | 1011.8 |
| 20260508184541 | 71 | 277 | 3.0 | 12.0 | 0.00 | 0.00 | 0.00 | 23 | 1011.9 |
| 20260508183053 | 71 | 308 | 9.0 | 15.0 | 0.00 | 0.00 | 0.00 | 23 | 1012.0 |
| 20260508181548 | 71 | 343 | 8.0 | 12.0 | 0.00 | 0.00 | 0.00 | 21 | 1012.2 |
| 20260508180036 | 70 | 329 | 0.0 | 8.0 | 0.00 | 0.00 | 0.00 | 22 | 1012.2 |
| 20260508174536 | 69 | 270 | 3.0 | 9.0 | 0.00 | 0.00 | 0.00 | 22 | 1012.3 |
| 20260508173037 | 69 | 285 | 2.0 | 8.0 | 0.00 | 0.00 | 0.00 | 24 | 1012.3 |
| 20260508171537 | 69 | 296 | 3.0 | 8.0 | 0.00 | 0.00 | 0.00 | 23 | 1012.4 |
| 20260508170030 | 68 | 255 | 0.0 | 8.0 | 0.00 | 0.00 | 0.00 | 26 | 1012.5 |
| 20260508164530 | 66 | 279 | 5.0 | 9.0 | 0.00 | 0.00 | 0.00 | 26 | 1012.5 |
| 20260508163029 | 66 | 284 | 1.0 | 7.0 | 0.00 | 0.00 | 0.00 | 27 | 1012.5 |
| 20260508161535 | 65 | 263 | 1.0 | 7.0 | 0.00 | 0.00 | 0.00 | 27 | 1012.6 |
| 20260508160033 | 65 | 236 | 2.0 | 7.0 | 0.00 | 0.00 | 0.00 | 27 | 1012.6 |
| 20260508154524 | 65 | 297 | 4.0 | 7.0 | 0.00 | 0.00 | 0.00 | 28 | 1012.5 |
| 20260508153024 | 63 | 289 | 1.0 | 5.0 | 0.00 | 0.00 | 0.00 | 34 | 1012.5 |
| 20260508151521 | 61 | 294 | 2.0 | 5.0 | 0.00 | 0.00 | 0.00 | 38 | 1012.4 |
| 20260508150023 | 60 | 257 | 2.0 | 4.0 | 0.00 | 0.00 | 0.00 | 40 | 1012.3 |
| 20260508144534 | 57 | 248 | 0.0 | 2.0 | 0.00 | 0.00 | 0.00 | 45 | 1012.3 |
| 20260508143027 | 54 | 243 | 0.0 | 1.0 | 0.00 | 0.00 | 0.00 | 48 | 1012.2 |
| 20260508141523 | 53 | 49 | 0.0 | 1.0 | 0.00 | 0.00 | 0.00 | 49 | 1012.0 |
| 20260508140016 | 50 | 315 | 0.0 | 0.0 | 0.00 | 0.00 | 0.00 | 52 | 1011.8 |
| 20260508134513 | 46 | 341 | 0.0 | 2.0 | 0.00 | 0.00 | 0.00 | 59 | 1011.7 |
| 20260508133011 | 44 | 342 | 0.0 | 0.0 | 0.00 | 0.00 | 0.00 | 63 | 1011.2 |
| 20260508131507 | 0 | 0.0 | 0.0 | 0.00 | 0.00 | 0.00 | 1011.0 | ||
| 20260508130002 | 0 | 0.0 | 0.0 | 0.00 | 0.00 | 0.00 | 1011.0 | ||
| 20260508124601 | 0 | 0.0 | 0.0 | 0.00 | 0.00 | 0.00 | 1010.9 | ||
| 20260508123052 | 0 | 0.0 | 0.0 | 0.00 | 0.00 | 0.00 | 1011.0 | ||
| 20260508121549 | 0 | 0.0 | 0.0 | 0.00 | 0.00 | 0.00 | 1011.1 | ||
| 20260508120043 | 0 | 0.0 | 0.0 | 0.00 | 0.00 | 0.00 | 1011.3 | ||
| 20260508114540 | 44 | 106 | 0.0 | 0.0 | 0.00 | 0.00 | 0.00 | 56 | 1011.3 |
| 20260508113103 | 44 | 121 | 0.0 | 0.0 | 0.00 | 0.00 | 0.00 | 54 | 1011.2 |
| 20260508111539 | 43 | 148 | 0.0 | 1.0 | 0.00 | 0.00 | 0.00 | 57 | 1011.1 |
| 20260508110038 | 42 | 94 | 0.0 | 0.0 | 0.00 | 0.00 | 0.00 | 59 | 1010.9 |